AKDT,Max TemperatureF,Mean TemperatureF,Min TemperatureF,Max Dew PointF,MeanDew PointF,Min DewpointF,Max Humidity, Mean Humidity, Min Humidity, Max Sea Level PressureIn, Mean Sea Level PressureIn, Min Sea Level PressureIn, Max VisibilityMiles, Mean VisibilityMiles, Min VisibilityMiles, Max Wind SpeedMPH, Mean Wind SpeedMPH, Max Gust SpeedMPH,PrecipitationIn, CloudCover, Events, WindDirDegrees
2013-9-1,59,52,44,52,49,45,100,88,72,29.85,29.84,29.83,20,12,1,5,1,,0.00,7,Rain,250
2013-9-2,50,48,46,50,48,46,100,98,94,29.91,29.87,29.79,15,9,4,0,0,,0.00,8,Rain,-1
2013-9-3,55,52,48,52,50,48,100,95,82,29.72,29.66,29.58,10,10,10,4,0,,0.00,7,Rain,240
2013-9-4,59,54,48,52,48,45,100,83,63,29.80,29.68,29.57,20,16,7,9,4,,0.00,6,Rain,12
2013-9-5,64,50,37,48,44,36,93,71,49,30.07,30.06,30.01,,,,5,3,,0.00,6,,318
2013-9-6,50,44,37,48,44,36,100,94,93,30.01,29.88,29.77,7,5,2,6,1,,0.00,8,Rain,155
2013-9-7,55,50,44,52,48,45,100,95,88,29.80,29.73,29.62,20,9,3,5,1,,0.00,8,Rain,40
2013-9-8,53,48,44,52,49,45,100,95,88,29.95,29.73,29.45,20,18,15,5,2,,0.00,7,Rain,264
2013-9-9,51,45,39,48,44,37,94,91,87,30.04,30.00,29.97,15,15,15,4,2,,0.00,8,,185
2013-9-10,55,48,41,50,46,41,100,90,82,29.94,29.92,29.91,20,20,20,6,3,,0.00,8,Rain,356
2013-9-11,57,50,44,52,48,45,100,92,77,29.88,29.80,29.73,15,8,1,7,5,,0.00,7,Rain,20
2013-9-12,60,51,42,48,45,41,100,81,63,30.09,30.06,30.01,,,,6,2,,0.00,5,,71
2013-9-13,51,39,30,46,37,28,100,88,81,30.10,30.08,30.05,20,20,20,6,2,,0.00,7,Rain,236
2013-9-14,48,42,37,48,43,37,100,95,87,29.95,29.94,29.93,20,13,7,4,1,,0.00,8,Rain,90
2013-9-15,48,42,37,46,43,37,100,95,93,30.08,29.89,29.80,20,5,0,6,4,,0.00,7,Fog-Rain,22
2013-9-16,46,39,32,43,38,32,100,91,81,29.67,29.61,29.56,20,14,7,4,1,,0.00,6,Rain,30
2013-9-17,48,44,39,46,43,39,100,97,93,29.53,29.52,29.49,7,3,1,5,0,,0.00,8,Rain,70
2013-9-18,53,46,39,45,43,39,100,83,67,29.66,29.65,29.63,20,18,15,6,2,,0.00,8,,255
2013-9-19,57,47,37,43,40,37,100,72,55,29.53,29.40,29.28,,,,12,3,,0.00,2,,197
2013-9-20,42,38,35,36,31,28,100,79,66,29.29,29.26,29.19,15,6,1,4,2,,0.00,7,,283
2013-9-21,39,32,26,37,32,25,100,90,65,29.08,29.05,28.99,20,11,7,5,2,,0.00,7,Rain,205
2013-9-22,46,40,35,37,36,34,100,83,71,29.07,29.01,28.97,20,8,2,8,2,,0.00,8,,10
2013-9-23,44,38,33,34,33,30,100,82,61,29.59,29.47,29.36,15,6,2,7,2,,0.00,8,Rain-Snow,187
2013-9-24,51,42,32,41,36,30,93,76,62,30.05,29.99,29.89,,,,7,2,,0.00,6,,166
2013-9-25,48,40,32,45,39,30,93,87,76,29.95,29.82,29.75,20,15,7,7,4,,0.00,8,Rain,157
2013-9-26,55,46,37,39,37,36,93,68,51,29.66,29.61,29.54,15,12,10,6,2,,0.00,6,,347
2013-9-27,51,42,33,39,35,32,93,74,54,29.26,29.13,29.06,20,19,10,5,1,,0.00,8,,207
2013-9-28,53,40,26,37,32,23,93,71,51,29.12,29.07,29.02,,,,7,2,,0.00,5,,177
2013-9-29,51,38,26,37,33,23,93,74,58,29.20,29.19,29.15,20,15,10,8,2,,0.00,6,,146
2013-9-30,46,36,26,37,32,25,93,77,62,29.53,29.48,29.40,20,20,20,5,1,,0.00,7,,14